Regional Weather Roundup
Issued by NWS

Home | Current Version | Previous Version | Graphics & Text | Print | Product List | Glossary Off
Versions: 1 2 3 4 5 6 7 8 9 10 11 12 13 14 15 16 17 18 19 20 21 22 23 24 25 26 27 28 29 30 31 32 33 34 35 36 37 38 39 40 41 42 43 44 45 46 47 48 49 50

049
ASUS43 KMKX 260021
RWRWI

WISCONSIN REGIONAL WEATHER ROUNDUP
NATIONAL WEATHER SERVICE MILWAUKEE/SULLIVAN WI
700 PM CDT THU AUG 25 2016

NOTE: "FAIR" INDICATES FEW OR NO CLOUDS BELOW 12,000 FEET WITH NO
SIGNIFICANT WEATHER AND/OR OBSTRUCTIONS TO VISIBILITY.

WIZ001-002-006>008-014>016-023>028-260100-
NORTHWEST WISCONSIN

CITY           SKY/WX    TMP DP  RH WIND       PRES   REMARKS
SUPERIOR ARPT  CLOUDY    66  56  68 W9        30.00S
6HR MIN TEMP:  66; 6HR MAX TEMP:  72;

ASHLAND        MOCLDY    67  54  63 W15G21    30.01R
6HR MIN TEMP:  67; 6HR MAX TEMP:  77; 6HR PCP: TRACE;

HAYWARD        CLOUDY    66  52  60 W5        30.04S
6HR MIN TEMP:  66; 6HR MAX TEMP:  72;

SIREN          MOCLDY    66  52  62 W8        30.05F
6HR MIN TEMP:  66; 6HR MAX TEMP:  72;

CUMBERLAND     PTCLDY    64  50  59 NW9       30.06S
RICE LAKE      CLEAR     67  53  62 W8        30.06F
6HR MIN TEMP:  67; 6HR MAX TEMP:  73;

CHETEK         NOT AVBL
LADYSMITH      PTCLDY    68  54  61 W9        30.05S
6HR MIN TEMP:  68; 6HR MAX TEMP:  76;

EAU CLAIRE     CLEAR     71  55  56 W12       30.03S
6HR MIN TEMP:  71; 6HR MAX TEMP:  78;

MENOMONIE      CLEAR     70  55  57 W10G17    30.05S
6HR MIN TEMP:  71; 6HR MAX TEMP:  78;

NEW RICHMOND   PTCLDY    67  53  59 NW7       30.07S
6HR MIN TEMP:  67; 6HR MAX TEMP:  73;

OSCEOLA        MOCLDY    68  53  59 W13       30.09S
6HR MIN TEMP:  68; 6HR MAX TEMP:  73;

$$

WIZ003>005-009-010-017-018-260100-
NORTH CENTRAL WISCONSIN

CITY           SKY/WX    TMP DP  RH WIND       PRES   REMARKS
MANITOWISH WTR NOT AVBL
ARBOR VITAE    PTCLDY    69  56  63 NW8       30.01R
6HR MIN TEMP:  68; 6HR MAX TEMP:  77;

WOODRUFF       PTCLDY    69  56  63 NW8       30.01R
6HR MIN TEMP:  68; 6HR MAX TEMP:  77;

RHINELANDER    PTCLDY    69  57  65 W12       30.01R
6HR MIN TEMP:  66; 6HR MAX TEMP:  78;

EAGLE RIVER    PTCLDY    68  51  53 W13G18    30.00R
6HR MIN TEMP:  68; 6HR MAX TEMP:  75;

LAND O LAKES   PTCLDY    68  52  56 W8        30.01R
6HR MIN TEMP:  68; 6HR MAX TEMP:  77; 6HR PCP:  0.01;

PHILLIPS       PTCLDY    65  55  68 NW8       30.02S
6HR MIN TEMP:  66; 6HR MAX TEMP:  74;

TOMAHAWK       CLEAR     68  53  58 W7        30.02S
6HR MIN TEMP:  68; 6HR MAX TEMP:  75;

MEDFORD        CLEAR     67  54  62 W8        30.03R
6HR MIN TEMP:  67; 6HR MAX TEMP:  74;

MERRILL        CLEAR     69  55  61 W8        30.02R
6HR MIN TEMP:  71; 6HR MAX TEMP:  77;

$$

WIZ029-030-035-036-043>047-260100-
CENTRAL WISCONSIN

CITY           SKY/WX    TMP DP  RH WIND       PRES   REMARKS
WAUSAU         CLEAR     72  57  59 W8        29.99F
6HR MIN TEMP:  72; 6HR MAX TEMP:  78;

MOSINEE        CLEAR     72  55  56 W10       30.02S
MARSHFIELD     CLEAR     71  53  52 W10       30.03R
6HR MIN TEMP:  71; 6HR MAX TEMP:  78;

STEVENS POINT  CLEAR     72  59  62 W7        30.02S
6HR MIN TEMP:  72; 6HR MAX TEMP:  77;

WAUPACA        CLEAR     76  60  57 SW9       30.00F
6HR MIN TEMP:  76; 6HR MAX TEMP:  82;

WAUTOMA        CLEAR     75  61  61 W8        30.02F
6HR MIN TEMP:  75; 6HR MAX TEMP:  80;

WISC RAPIDS    CLEAR     74  60  61 W8        30.03S
6HR MIN TEMP:  74; 6HR MAX TEMP:  81;

CAMP DOUGLAS   PTCLDY    73  63  68 W7        30.03S
$$

WIZ011>013-019>022-031-037>040-048>050-260100-
NORTHEAST WISCONSIN

CITY           SKY/WX    TMP DP  RH WIND       PRES   REMARKS
ANTIGO         CLEAR     69  57  65 W10       30.01S
6HR MIN TEMP:  69; 6HR MAX TEMP:  76;

SHAWANO        CLEAR     76  58  53 W7        29.99R
6HR MIN TEMP:  76; 6HR MAX TEMP:  82;

OCONTO         NOT AVBL
STURGEON BAY   CLEAR     75  62  64 W10       29.97S
6HR MIN TEMP:  75; 6HR MAX TEMP:  78;

GREEN BAY      CLEAR     75  64  68 SW6       29.98S
6HR MIN TEMP:  75; 6HR MAX TEMP:  79;

MANITOWOC      CLEAR     75  60  59 SW5       29.99F
6HR MIN TEMP:  75; 6HR MAX TEMP:  79;

APPLETON       PTCLDY    75  55  50 W8        29.99S
CLINTONVILLE   CLEAR     73  57  56 W8        29.99S
OSHKOSH        CLEAR     75  60  59 W3        30.00F
6HR MIN TEMP:  75; 6HR MAX TEMP:  79;

$$

WIZ032>034-041-042-053>061-260100-
SOUTHWEST WISCONSIN

CITY           SKY/WX    TMP DP  RH WIND       PRES   REMARKS
LA CROSSE      CLEAR     77  60  55 W9        30.03S
6HR MIN TEMP:  77; 6HR MAX TEMP:  81;

SPARTA         CLEAR     74  60  60 W6        30.05R
6HR MIN TEMP:  74; 6HR MAX TEMP:  77;

VIROQUA        CLEAR     71  64  77 SW7       30.07S
6HR MIN TEMP:  72; 6HR MAX TEMP:  76;

BOSCOBEL       CLOUDY    76  64  66 SW3       30.05F
6HR MIN TEMP:  76; 6HR MAX TEMP:  80;

PRAIRIE DU CHI CLEAR     75  59  57 W5        30.06S
6HR MIN TEMP:  75; 6HR MAX TEMP:  78;

PLATTEVILLE    CLOUDY    73  66  80 SW5       30.07S
6HR MIN TEMP:  72; 6HR MAX TEMP:  78;

$$

WIZ056-057-062-063-064-067-068-260100-
SOUTH CENTRAL WISCONSIN

CITY           SKY/WX    TMP DP  RH WIND       PRES   REMARKS
REEDSBURG      NOT AVBL
BARABOO/DELLS  CLOUDY    73  61  66 W7        30.04F
6HR MIN TEMP:  73; 6HR MAX TEMP:  77;

LONE ROCK      CLOUDY    75  63  66 W7        30.05F
6HR MIN TEMP:  75; 6HR MAX TEMP:  78;

MINERAL POINT  CLOUDY    73  63  68 W3        30.07S
MADISON        MOCLDY    74  62  66 CALM      30.04F
6HR MIN TEMP:  74; 6HR MAX TEMP:  80;

MIDDLETON      PTCLDY    74  64  70 SW5       30.05S
6HR MIN TEMP:  73; 6HR MAX TEMP:  81;

WATERTOWN      PTCLDY    74  64  69 W3        30.03F
6HR MIN TEMP:  74; 6HR MAX TEMP:  79;

MONROE         CLOUDY    72  63  73 W9        30.07R
JANESVILLE     MOCLDY    75  64  69 CALM      30.04F
$$

WIZ051-052-058>065-066-070>072-260100-
SOUTHEAST WISCONSIN

CITY           SKY/WX    TMP DP  RH WIND       PRES   REMARKS
MILWAUKEE      CLOUDY    80  57  45 W7        30.02F HX  80
6HR MIN TEMP:  79; 6HR MAX TEMP:  84;

WAUKESHA       CLEAR     73  61  64 W7        30.05S
MILWAUKEE/TIMM CLEAR     75  54  46 W6        30.04S
RACINE         CLOUDY    76  62  62 W3        30.04S
6HR MIN TEMP:  76; 6HR MAX TEMP:  82;

BURLINGTON     PTCLDY    73  60  63 CALM      30.04S
6HR MIN TEMP:  73; 6HR MAX TEMP:  80;

KENOSHA        CLOUDY    73  63  70 W6        30.04S
6HR MIN TEMP:  73; 6HR MAX TEMP:  82;

FOND DU LAC    CLEAR     75  60  59 SW5       30.02S
6HR MIN TEMP:  75; 6HR MAX TEMP:  80;

SHEBOYGAN      CLEAR     73  60  63 W7        30.01S
6HR MIN TEMP:  73; 6HR MAX TEMP:  80;

WEST BEND      CLOUDY    73  59  60 W7        30.03S
JUNEAU         CLOUDY    73  63  70 SW6       30.04F
6HR MIN TEMP:  73; 6HR MAX TEMP:  78;

$$

LSZ147-162-260100-
LAKE SUPERIOR

STATION/POSITION TIME  TEMP    WIND        PRES    WAVE
                       AIR SEA DIR/SP/G            HT/PER
                 (UTC) (F)     (DEG/KT/KT) (MB)    (FT/S)
W MID LAKE BUOY  2350   68 68  250/ 23/ 27 1012.4R   5/ 6
DEVILS ISLAND    0000   67     240/ 20/ 24 1014.5R
PORT WING        2340   69     240/ 14/ 18 1015.6R
SAXON HARBOR     2300   71     270/ 10/ 17 1014.9
$$

LMZ867-665-643>646-260100-
LAKE MICHIGAN

STATION/POSITION TIME  TEMP    WIND        PRES    WAVE
                       AIR SEA DIR/SP/G            HT/PER
                 (UTC) (F)     (DEG/KT/KT) (MB)    (FT/S)
CHAMBERS ISLAND  2340   76     220/  7/ 12 1013.5R
S GREEN BAY BUOY 2230   76 73  240/ 10/ 12 1014.1F
N MID LAKE BUOY  2350   72 70  210/ 16/ 17 1012.9S   2/ 4
NORTHPORT PIER   2300   79     220/  4C1F1C2F2C3F3C4F4C5F5C6F6C7F7C8M1C9M2Ca!



USA.gov is the U.S. government's official web portal to all federal, state and local government web resources and services.